Tracking 28091 objects as of 30-Sep-2023
HD Live streaming from Space Station
objects crossing your sky now

STARLINK-6194

Track STARLINK-6194 now!
10-day predictions
STARLINK-6194 is classified as:


NORAD ID: 57077
Int'l Code: 2023-088AF
Perigee: 565.4 km
Apogee: 567.0 km
Inclination: 43.0 °
Period: 95.8 minutes
Semi major axis: 6937 km
RCS: Unknown
Launch date: June 22, 2023
Source: United States (US)
Launch site: AIR FORCE WESTERN TEST RANGE (AFWTR)
Your satellite tracking list
Your tracking list is empty




NASA's NSSDC Master Catalog

Two Line Element Set (TLE):
1 57077U 23088AF  23273.14044196  .00002132  00000-0  17284-3 0  9996
2 57077  43.0017 259.2291 0001115 259.8046 100.2671 15.02542173 16571
Source of the keplerian elements: AFSPC